Probability
0 0 0 1 2 3 4 3 1 0 0 0 0 0 0 0 0 0 0 1 3 4 2 1 0 0 0 0 0 0 0 0 0 0 0 0 0 0 0 0 0 0 0
0 0 0 0 1 1 2 1 0 0 0 0 0 0 0 0 0 0 0 1 3 5 4 2 1 0 0 0 0 0 0 0 0 0 0 0 0 0 0 0 0 0 0
0 0 0 0 0 0 0 0 0 0 0 0 0 0 0 0 0 0 0 0 1 3 4 4 3 1 0 0 0 0 0 0 0 0 0 0 0 0 0 0 0 0 0
0 0 0 0 0 0 0 0 0 0 0 0 0 0 0 0 0 0 0 0 0 0 1 2 4 3 2 0 0 0 0 0 0 0 0 0 0 0 0 0 0 0 0
0 0 0 0 0 0 0 0 0 0 0 0 0 0 0 0 0 0 0 0 0 0 0 1 3 4 4 2 1 0 0 0 0 0 0 0 0 0 0 0 0 0 0
0 0 0 0 0 0 0 0 0 0 0 0 0 0 0 0 0 0 0 0 0 0 0 0 1 2 4 4 2 1 0 0 0 0 0 0 0 0 0 0 0 0 0
0 0 0 0 0 0 0 0 0 0 0 0 0 0 0 0 0 0 0 0 0 0 0 0 0 1 2 3 2 2 1 0 0 0 0 0 0 0 0 0 0 0 0
0 0 0 0 0 0 0 0 0 0 0 0 0 0 0 0 0 0 0 0 0 0 0 0 0 0 1 2 2 2 2 2 1 0 0 0 0 0 0 0 0 0 0
0 0 0 0 0 0 0 0 0 0 0 0 0 0 0 0 0 0 0 0 0 0 0 0 0 0 0 1 2 2 4 6 4 1 0 0 0 0 0 0 0 0 0
0 0 0 0 0 0 0 0 0 0 0 0 0 0 0 0 0 0 0 0 0 0 0 0 0 0 0 1 1 2 3 6 6 3 1 0 0 0 0 0 0 0 0
0 0 0 0 0 0 0 0 0 0 0 0 0 0 0 0 0 0 0 0 0 0 0 0 0 0 0 1 1 1 2 4 7 6 3 2 1 1 1 0 0 0 0
0 0 0 0 0 0 0 0 0 0 0 0 0 0 0 0 0 0 0 0 0 0 0 0 0 0 1 1 1 1 0 2 6 8 7 6 5 3 2 1 0 0 0
0 0 0 0 0 0 0 0 0 0 0 0 0 0 0 0 0 0 0 0 0 0 0 0 0 0 1 2 2 1 0 1 4 8 9 8 7 5 4 3 1 0 0
0 0 0 0 0 0 0 0 0 0 0 0 0 0 0 0 0 0 0 0 0 0 0 0 0 0 0 1 1 1 0 0 1 4 7 8 8 7 5 4 2 1 1
0 0 0 0 0 0 0 0 0 0 0 0 0 0 0 0 0 0 0 0 0 0 0 0 0 0 0 0 0 0 0 0 0 1 3 5 7 7 5 2 1 1 2
0 0 0 0 0 0 0 0 0 0 0 0 0 0 0 0 0 0 0 0 0 0 0 0 0 0 0 0 0 0 0 0 0 0 0 2 4 4 3 1 0 1 2
0 0 0 0 0 0 0 0 0 0 0 0 0 0 0 0 0 0 0 0 0 0 0 0 0 0 0 0 0 0 0 0 0 0 0 0 1 1 1 1 0 0 1
0 0 0 0 0 0 0 0 0 0 0 0 0 0 0 0 0 0 0 0 0 0 0 0 0 0 0 0 0 0 0 0 0 0 0 0 0 0 0 0 0 0 0
0 0 0 0 0 0 0 0 0 0 0 0 0 0 0 0 0 0 0 0 0 0 0 0 0 0 0 0 0 0 0 0 0 0 0 0 0 0 0 0 0 0 0
0 0 0 0 0 0 0 0 0 0 0 0 0 0 0 0 0 0 0 0 0 0 0 0 0 0 0 0 0 0 0 0 0 0 0 0 0 0 0 0 0 0 0
0 0 0 0 0 0 0 0 0 0 0 0 0 0 0 0 0 0 0 0 0 0 0 0 0 0 0 0 0 0 0 0 0 0 0 0 0 0 0 0 0 0 0
0 0 0 0 0 0 0 0 0 0 0 0 0 0 0 0 0 0 0 0 0 0 0 0 0 0 0 0 0 0 0 0 0 0 0 0 0 0 0 0 0 0 0
0 0 0 0 0 0 0 0 0 0 0 0 0 0 0 0 0 0 0 0 0 0 0 0 0 0 0 0 0 0 0 0 0 0 0 0 0 0 0 0 0 0 0
0 0 0 0 0 0 0 0 0 0 0 0 0 0 0 0 0 0 0 0 0 0 0 0 0 0 0 0 0 0 0 0 0 0 0 0 0 0 0 0 0 0 0
0 0 0 0 0 0 0 0 0 0 0 0 0 0 0 0 0 0 0 0 0 0 0 0 0 0 0 0 0 0 0 0 0 0 0 0 0 0 0 0 0 0 0
0 0 0 0 0 0 0 0 0 0 0 0 0 0 0 0 0 0 0 0 0 0 0 0 0 0 0 0 0 0 0 0 0 0 0 0 0 0 0 0 0 0 0
Wind_Speed
3 3 2 2 3 2 2 2 3 3 4 4 4 5 5 5 5 4 4 11 14 14 14 14 13 12 12 11 11 10 10 10 10 11 11 11 11 11 10 10 10 10 10
2 2 3 3 3 2 2 3 3 3 3 3 4 4 4 4 4 5 4 7 13 14 14 15 14 13 13 12 12 11 11 11 11 11 12 11 11 11 11 11 10 10 9
2 1 2 2 3 3 3 2 3 2 2 2 3 3 3 3 4 4 4 4 5 11 13 14 15 14 14 13 13 12 12 11 11 12 12 12 11 11 11 11 11 10 9
2 1 1 2 3 2 2 2 2 2 2 2 2 2 2 2 3 4 4 4 4 5 8 13 14 14 15 14 14 13 13 12 12 12 12 12 12 12 11 11 11 10 9
3 2 2 2 2 1 1 2 2 2 2 2 2 2 2 2 3 4 4 5 5 5 5 9 13 14 14 15 15 15 14 14 14 13 13 12 12 12 12 11 11 11 10
3 2 2 2 2 1 1 1 2 2 2 2 3 2 2 2 3 3 5 4 4 6 6 6 6 9 13 14 14 15 15 15 15 15 14 14 13 13 13 12 12 11 11
3 2 2 2 1 1 1 2 1 1 2 1 0 1 2 3 3 3 3 4 5 6 6 6 5 5 6 12 14 15 16 17 16 16 16 15 14 14 13 13 12 12 11
4 3 2 2 2 1 1 1 1 1 1 2 2 1 1 2 2 3 3 4 5 4 6 7 6 7 5 5 8 14 14 16 17 17 16 16 15 15 14 14 13 13 12
4 3 3 2 2 1 1 2 1 1 1 1 2 2 2 2 2 2 2 3 3 3 4 5 7 7 7 6 6 11 14 14 16 18 17 16 16 16 15 15 14 13 13
4 4 3 2 2 1 1 2 1 1 2 2 1 2 2 2 1 2 2 1 2 3 4 5 6 7 7 6 7 11 14 14 16 18 18 18 17 17 16 16 15 14 13
4 4 3 2 2 1 2 2 2 2 2 2 2 2 1 1 2 2 2 1 1 2 3 4 3 5 7 7 6 10 14 15 16 17 18 19 18 18 17 17 16 16 15
3 4 4 3 2 2 2 2 2 2 2 2 2 2 2 2 2 2 3 2 2 2 2 3 3 4 5 6 10 13 15 16 17 16 16 16 17 18 18 17 17 16 16
3 4 4 3 3 3 2 2 2 2 2 2 3 3 3 3 2 2 2 2 2 2 1 2 3 3 4 5 6 12 14 16 17 16 15 14 14 15 16 17 17 17 16
3 4 4 3 3 3 3 2 2 2 2 2 2 2 2 2 3 3 3 2 2 2 2 3 1 3 3 4 5 9 8 15 16 16 15 14 14 14 14 15 16 16 16
3 4 4 4 3 3 3 2 1 2 2 2 2 2 2 2 2 3 3 3 3 3 3 3 2 3 3 3 5 5 5 11 15 15 15 15 14 13 14 14 13 13 13
4 5 5 5 4 3 3 2 2 2 2 2 1 1 1 1 2 2 2 3 3 4 3 2 3 2 3 4 6 5 6 9 13 14 14 15 14 14 13 13 12 11 11
4 5 5 5 5 4 4 3 3 3 3 3 2 1 2 2 1 1 2 2 3 3 4 3 2 2 3 3 3 3 4 4 5 11 13 13 14 14 13 13 12 11 11
4 4 4 5 5 5 4 4 4 4 3 3 2 2 2 2 1 1 1 2 3 3 4 4 2 2 4 4 3 4 4 4 4 8 11 12 13 13 13 13 12 12 11
4 4 4 4 4 4 4 4 3 4 3 3 2 2 2 1 2 2 2 2 2 3 3 3 3 2 2 2 2 3 4 3 4 6 9 10 12 12 12 12 12 12 11
3 3 3 3 4 4 4 4 4 4 4 4 3 2 2 2 2 2 2 2 2 2 2 2 3 2 2 2 2 3 3 3 3 4 5 6 8 10 11 11 12 12 12
3 3 3 4 4 3 3 3 4 4 4 4 4 4 3 3 3 2 1 1 1 2 2 2 2 2 2 2 3 3 3 3 2 3 3 3 4 4 6 8 11 12 11
3 3 3 3 4 3 6 6 4 3 3 3 4 4 4 3 5 5 4 2 2 2 3 3 2 3 4 3 3 3 3 3 2 3 3 3 3 4 4 4 7 10 11
2 3 3 3 3 5 7 6 6 3 3 3 3 3 3 3 4 3 4 4 3 3 4 3 4 4 4 4 4 4 4 4 3 3 3 3 3 4 3 4 8 9 10
2 3 3 3 3 5 7 6 5 3 3 3 3 3 3 4 4 3 3 3 3 3 3 2 3 4 4 4 5 5 4 3 1 1 3 3 3 3 2 3 7 9 9
3 3 3 4 4 6 7 6 4 2 2 4 4 3 3 3 5 5 3 3 4 4 3 3 3 4 4 5 5 3 3 3 2 2 2 3 2 2 2 3 4 8 8
3 4 4 4 4 5 7 6 3 0 2 3 3 4 5 5 6 5 2 2 4 4 3 3 3 2 1 2 4 4 5 4 2 2 3 3 3 3 2 2 2 4 5
Wind_Direction
260 257 255 248 244 233 228 230 233 234 230 225 221 224 226 228 228 222 222 217 206 199 194 188 183 182 181 178 176 175 172 168 163 160 157 154 151 150 149 147 144 143 141
261 258 259 258 248 233 229 228 229 232 229 223 226 223 223 225 229 219 215 213 206 200 195 192 188 186 185 183 180 178 177 174 170 167 164 161 159 157 156 154 150 147 145
281 269 265 262 255 238 231 235 240 235 239 237 232 225 223 217 215 211 206 204 209 207 201 197 193 190 189 188 186 183 181 179 177 174 171 168 165 164 162 161 159 157 155
323 308 288 274 266 248 230 232 229 232 243 241 237 240 232 215 215 211 201 199 205 210 209 204 197 194 194 193 191 188 185 183 182 180 177 174 171 171 170 170 169 167 164
337 327 300 289 281 252 236 250 221 213 228 239 239 237 235 223 215 213 205 204 205 210 208 211 203 196 196 197 196 193 190 187 187 186 182 179 178 179 179 178 177 176 174
333 334 310 310 312 281 247 244 236 221 219 221 253 259 248 235 221 212 208 202 207 213 207 206 202 203 201 198 199 198 194 192 191 192 189 186 185 186 186 186 185 184 183
332 333 326 316 318 285 264 255 232 231 233 186 167 292 277 244 229 221 208 195 208 214 203 201 196 194 203 205 202 201 199 197 196 196 194 192 191 192 191 191 192 192 192
327 333 331 317 308 301 319 306 250 225 230 171 154 166 294 308 265 229 206 205 210 206 206 206 199 198 197 194 206 205 203 200 199 200 199 197 195 196 197 197 198 199 199
324 325 319 317 315 313 288 276 241 196 224 228 183 172 183 230 287 289 222 211 201 201 204 199 201 203 202 197 198 209 205 202 202 203 202 201 200 200 201 202 203 204 204
330 327 322 319 317 311 293 281 255 214 196 218 232 217 206 187 201 304 311 249 211 208 210 211 204 203 202 199 201 204 205 203 205 206 206 206 205 204 204 205 207 207 208
332 334 331 330 318 305 292 287 283 250 207 201 206 209 213 214 205 202 266 285 269 228 210 205 203 204 202 199 200 205 206 207 207 209 210 209 208 208 208 208 210 211 211
327 333 329 331 318 306 301 291 275 260 237 225 217 205 191 196 203 197 228 251 257 256 229 209 206 209 206 201 207 204 206 207 207 209 210 210 209 209 210 210 211 212 213
322 322 327 317 310 299 295 300 294 280 253 241 228 219 206 208 200 190 204 229 247 265 250 234 214 206 209 201 209 207 206 204 205 206 208 209 209 208 210 212 213 214 214
303 311 320 320 320 321 321 319 307 292 273 255 249 227 218 220 203 195 192 191 238 268 255 244 231 212 210 202 210 208 210 204 205 204 204 206 207 207 208 211 214 215 216
325 334 337 341 341 341 336 339 325 307 306 279 263 245 232 232 217 207 198 191 193 229 254 238 223 218 208 205 204 200 202 204 208 208 206 205 206 207 208 211 213 214 214
346 352 358 358 358 360 355 359 340 324 334 317 288 272 262 250 243 216 206 209 205 207 235 241 223 215 206 205 196 195 203 201 209 210 210 207 204 203 206 207 208 207 207
354 4 5 10 12 10 6 13 358 358 353 334 335 329 299 282 256 234 219 217 219 208 234 254 230 214 204 201 194 200 201 198 203 210 211 207 203 202 202 204 204 203 203
358 5 13 18 16 12 10 12 2 359 355 342 330 332 313 308 287 270 244 236 230 220 220 241 238 214 214 206 193 193 202 201 199 208 210 209 206 205 203 203 202 202 203
358 6 14 14 9 5 6 4 360 351 347 332 320 312 299 308 294 278 267 248 238 236 219 223 238 221 215 196 183 195 201 201 201 204 207 211 210 208 207 204 201 200 202
354 354 355 354 353 356 358 355 355 353 350 345 339 324 303 298 278 274 270 261 246 238 229 229 231 223 214 199 178 191 200 201 204 204 203 203 207 207 207 206 202 200 201
345 339 344 344 343 344 345 349 347 351 353 352 349 342 321 317 309 299 271 255 245 237 232 229 229 220 212 193 199 188 195 192 204 193 185 196 196 203 206 207 206 203 200
335 337 335 334 337 335 341 348 350 347 344 348 341 335 331 340 347 346 330 294 249 231 229 225 227 227 230 212 196 188 181 178 210 191 177 197 188 198 202 202 204 199 199
314 316 315 324 320 315 326 338 347 353 345 337 336 335 337 348 352 340 340 344 321 290 249 227 227 232 230 214 193 194 192 186 198 183 166 197 189 204 199 199 193 193 196
285 289 294 303 305 309 321 331 341 356 348 342 341 336 329 326 332 342 344 343 333 321 299 263 237 245 240 220 202 196 187 172 156 169 160 187 189 199 184 192 193 192 193
277 276 279 287 291 300 311 318 334 348 345 339 336 341 342 334 335 354 358 338 325 320 308 296 274 265 255 228 193 162 163 166 192 199 176 174 172 170 185 197 193 193 194
261 279 286 281 272 280 292 302 313 347 332 326 329 334 342 342 339 348 345 330 322 315 318 322 327 331 307 235 201 190 184 181 172 199 186 173 169 158 189 206 191 193 199